Hourly Data Report for October 09, 2015

All times are specified in Local Standard Time (LST). Add 1 hour to adjust for Daylight Saving Time where and when it is observed.

MONCTON INTL A
NEW BRUNSWICK

46°06'44.000" N
64°40'43.000" W
70.70 m
8103201
71705
YQM

Download Data

Hourly Data (October 2015)
Hourly Data Report for October 9, 2015
Temp Definition
°C
Dew Point Temp Definition
°C
Rel Hum Definition
%
Wind Dir Definition
10's deg

Wind Spd Definition
km/h
Visibility Definition
km
Stn Press Definition
kPa
Hmdx Definition


Wind Chill Definition


Weather Definition


TIME
00:00 Legend Double Dagger 4.2 1.7 84 23 7 24.1 101.05     LegendNANA
01:00 Legend Double Dagger 3.8 1.5 85 22 9 24.1 101.03     LegendNANA
02:00 Legend Double Dagger 3.7 1.6 86 22 11 24.1 101.05     Mostly Cloudy
03:00 Legend Double Dagger 3.8 1.4 84 23 14 24.1 101.03     LegendNANA
04:00 Legend Double Dagger 3.8 1.0 82 24 14 24.1 101.01     LegendNANA
05:00 Legend Double Dagger 3.0 0.7 85 24 13 24.1 101.00     Mostly Cloudy
06:00 Legend Double Dagger 1.6 0.0 89 22 10 24.1 101.00     LegendNANA
07:00 Legend Double Dagger 1.5 0.2 91 20 9 24.1 101.02     LegendNANA
08:00 Legend Double Dagger 4.3 1.0 79 23 13 24.1 101.04     Mostly Cloudy
09:00 Legend Double Dagger 6.0 1.2 71 23 9 24.1 101.07     LegendNANA
10:00 Legend Double Dagger 7.5 0.0 59 25 8 24.1 101.00     LegendNANA
11:00 Legend Double Dagger 8.7 0.4 56 21 9 24.1 100.90     Cloudy
12:00 Legend Double Dagger 9.2 -0.1 52 25 14 24.1 100.86     LegendNANA
13:00 Legend Double Dagger 9.2 0.2 53 24 8 24.1 100.75     LegendNANA
14:00 Legend Double Dagger 9.0 -0.3 52 27 5 24.1 100.64     Cloudy
15:00 Legend Double Dagger 9.5 1.9 59 15 13 24.1 100.55     LegendNANA
16:00 Legend Double Dagger 9.3 3.1 65 14 9 24.1 100.45     LegendNANA
17:00 Legend Double Dagger 8.8 4.3 73 13 12 24.1 100.32     Cloudy
18:00 Legend Double Dagger 8.6 4.1 73 12 15 24.1 100.17     LegendNANA
19:00 Legend Double Dagger 8.5 4.0 73 12 17 24.1 99.97     LegendNANA
20:00 Legend Double Dagger 9.0 5.2 77 13 8 24.1 99.97     Rain
21:00 Legend Double Dagger 9.8 7.2 84 17 26 12.9 99.83     Rain
22:00 Legend Double Dagger 9.2 7.8 91 16 21 12.9 99.65     Rain
23:00 Legend Double Dagger 9.5 8.4 93 16 26 12.9 99.47     Rain

Notes on Data Quality.

Legend

  • E = Estimated
  • M = Missing
  • NA = Not Available
  • ‡ = Partner data that is not subject to review by the National Climate Archives
Date modified: